Powrót do katalogu

FENGYUN 1C DEB

AktywnySSO
NORAD 30547·DEBRIS·🇨🇳 China

Wystrzelony May 10, 1999 z Taiyuan Satellite Launch Center

Loading…

Następne Przeloty (najbliższe 24 godziny)

TLE

ŚwieżeSource: Space-Track

Epoka: Sep 14, 2026, 08:38 UTC

1 30547U 99025AKM 26257.36018646  .00000344  00000-0  12260-3 0  9995
2 30547  98.8754 114.9322 0096118 123.8942  48.2125 14.38094032 26811

Śledź FENGYUN 1C DEB w czasie rzeczywistym z AllMySat

Download on the App Store